Find SPOT 5

NORAD ID: 27421 Int'l Des: 2002-021 Owner: CNES Country: F operational
LEORETROGRADESSO

Current View

Loading 3D Globe...

About SPOT 5

SPOT 5 (NORAD 27421) is a satellite launched May 4, 2002 by CNES of F. It operates in LEO, RETROGRADE, SSO orbit with a mass of 3000.00 kg.

Upcoming Passes

Passes for default location (London). Set your location on the main map for personalized predictions.

Altitude History

Loading altitude history...

Two-Line Element Set

1 27421U 02021A 26195.13350950 .00000162 00000-0 44143-4 0 9999
2 27421 97.9836 232.8017 0129306 192.0156 167.7949 14.54767993266763
Epoch: Jul 14, 2026 • Age: 11 hours

Current Status

Altitude 679.1 km
Apogee / Perigee N/A
Velocity 7.55 km/s
Sub-Earth Point -63.22°S, 108.62°W
Launch Date May 4, 2002
Age 24.1 years
Type earth observation

Technical Details

Classification Payload
Mass 3000.00 kg
Dry Mass 2850.00 kg
Total Mass 3000.00 kg
Length 5.70 m
Diameter 3.10 m
Span 10.00 m
Shape Box + Pan
Manufacturer ASTT
Bus Type SPOT
Phase Status In Orbit
Owner/State CNES/F

Most Searched